Weather History for Port Angeles, WA

Change the Weather History Date:

Saturday, October 29, 2011

  Actual Average Record
Temperature  
Mean Temperature 48 °F -  
Max Temperature 54 °F 53 °F 65 °F (1965)
Min Temperature 43 °F 39 °F 28 °F (2006)
Degree Days  
Heating Degree Days 16    
Moisture  
Dew Point 42 °F    
Average Humidity 84    
Maximum Humidity 93    
Minimum Humidity 69    
Precipitation  
Precipitation 0.00 in - - ()
Sea Level Pressure  
Sea Level Pressure 30.23 in    
Wind  
Wind Speed 4 mph (WSW)    
Max Wind Speed 9 mph    
Max Gust Speed -    
Visibility 8 miles    
Events      
Averages and records for this station are not official NWS values.
T = Trace of Precipitation, MM = Missing Value Source: NWS Daily Summary

Daily Weather History Graph

Daily Weather History Graph

Search for Another Location

Airport:

Trip Planner

Search our weather history database for the weather conditions in past years. The results will help you decide how hot, cold, wet, or windy it might be!

Date:

Astronomy

Oct. 29, 2011 Rise Set
Actual Time 7:54 AM PDT 6:00 PM PDT
Civil Twilight 7:22 AM PDT 6:32 PM PDT
Nautical Twilight 6:45 AM PDT 7:09 PM PDT
Astronomical Twilight 6:09 AM PDT 7:45 PM PDT
Moon 11:37 AM PDT (10/29) 8:14 PM PDT (10/29)
Length of Visible Light 11h 10m
Length of Day
10h 06m
Waxing Crescent, 12% of the Moon is Illuminated
Oct 29
Waxing Crescent
Nov 2
First Quarter
Nov 10
Full
Nov 18
Last Quarter
Nov 24
New

Hourly Weather History & Observations

Time (PDT) Temp. Windchill Dew Point Humidity Pressure Visibility Wind Dir Wind Speed Gust Speed Precip Events Conditions
12:53 AM 46.9 °F - 41.0 °F 80% 30.13 in 10.0 mi West 9.2 mph - N/A   Clear
1:53 AM 46.9 °F - 42.1 °F 83% 30.15 in 10.0 mi WSW 9.2 mph - N/A   Partly Cloudy
2:53 AM 46.4 °F 43.5 °F 39.2 °F 76% 30.15 in 10.0 mi WSW 5.8 mph - N/A   Clear
3:53 AM 46.0 °F 41.4 °F 41.0 °F 83% 30.17 in 10.0 mi West 9.2 mph - N/A   Partly Cloudy
4:53 AM 46.9 °F - 39.9 °F 77% 30.19 in 10.0 mi WSW 9.2 mph - N/A   Clear
5:53 AM 45.0 °F 41.8 °F 39.0 °F 80% 30.22 in 10.0 mi SSW 5.8 mph - N/A   Scattered Clouds
6:53 AM 45.0 °F 43.5 °F 39.0 °F 80% 30.23 in 10.0 mi SW 3.5 mph - N/A   Overcast
7:53 AM 43.0 °F - 39.0 °F 86% 30.25 in 10.0 mi Calm Calm - N/A   Mostly Cloudy
8:53 AM 43.0 °F - 39.9 °F 89% 30.26 in 10.0 mi Calm Calm - N/A   Scattered Clouds
9:53 AM 51.8 °F - 42.8 °F 71% 30.26 in 10.0 mi Calm Calm - N/A   Overcast
10:53 AM 48.9 °F - 42.1 °F 77% 30.30 in 10.0 mi NNW 3.5 mph - N/A   Overcast
11:53 AM 52.0 °F - 42.1 °F 69% 30.32 in 10.0 mi Calm Calm - N/A   Overcast
12:53 PM 53.1 °F - 45.0 °F 74% 30.31 in 10.0 mi NNE 3.5 mph - N/A   Overcast
1:53 PM 52.0 °F - 45.0 °F 77% 30.31 in 10.0 mi Calm Calm - N/A   Overcast
2:53 PM 54.0 °F - 45.0 °F 72% 30.30 in 10.0 mi Calm Calm - N/A   Overcast
3:53 PM 51.1 °F - 46.0 °F 83% 30.29 in 10.0 mi NNW 3.5 mph - N/A   Overcast
4:53 PM 51.8 °F - 46.4 °F 82% 30.27 in 10.0 mi Calm Calm - N/A   Mostly Cloudy
5:53 PM 48.9 °F - 45.0 °F 86% 30.26 in 10.0 mi Calm Calm - N/A   Overcast
6:53 PM 48.0 °F - 45.0 °F 89% 30.25 in 10.0 mi WSW 3.5 mph - N/A   Mostly Cloudy
7:53 PM 46.0 °F - 44.1 °F 93% 30.23 in 6.0 mi Calm Calm - N/A   Overcast
8:26 PM 44.6 °F - 42.8 °F 93% 30.21 in 1.8 mi Calm Calm - N/A   Scattered Clouds
8:34 PM 44.6 °F - 42.8 °F 93% 30.21 in 0.8 mi Calm Calm - N/A   Mostly Cloudy
8:39 PM 44.6 °F - 42.8 °F 93% 30.21 in 2.5 mi Calm Calm - N/A   Mostly Cloudy
8:46 PM 44.6 °F - 42.8 °F 93% 30.21 in 4.0 mi Calm Calm - N/A   Mostly Cloudy
8:53 PM 44.1 °F - 42.1 °F 93% 30.22 in 4.0 mi Calm Calm - N/A   Overcast
9:49 PM 44.6 °F - 41.0 °F 87% 30.20 in 7.0 mi Calm Calm - N/A   Partly Cloudy
9:53 PM 44.1 °F - 42.1 °F 93% 30.21 in 8.0 mi Calm Calm - N/A   Partly Cloudy
10:14 PM 44.6 °F 42.2 °F 42.8 °F 93% 30.20 in 10.0 mi WSW 4.6 mph - N/A   Mostly Cloudy
10:46 PM 44.6 °F 43.1 °F 42.8 °F 93% 30.19 in 10.0 mi SW 3.5 mph - N/A   Overcast
10:53 PM 44.1 °F 42.5 °F 41.0 °F 89% 30.19 in 9.0 mi SW 3.5 mph - N/A   Overcast
11:53 PM 44.1 °F 41.5 °F 41.0 °F 89% 30.17 in 7.0 mi SW 4.6 mph - N/A   Overcast